Change the Weather History Date:

Friday, November 7, 2014

  Actual Average (KPPA) Record (KPPA)
Temperature  
Mean Temperature 60 °F -  
Max Temperature 78 °F 61 °F 81 °F (1980)
Min Temperature 42 °F 34 °F 18 °F (1993)
Degree Days  
Heating Degree Days 5    
Growing Degree Days 10 (Base 50)    
Moisture  
Dew Point 38 °F    
Average Humidity 47    
Maximum Humidity 84    
Minimum Humidity 21    
Precipitation  
Precipitation 0.00 in - - ()
Sea Level Pressure  
Sea Level Pressure 30.03 in    
Wind  
Wind Speed 11 mph (SW)    
Max Wind Speed 24 mph    
Max Gust Speed 32 mph    
Visibility 10 miles    
Events      
Averages and records for this station are not official NWS values.
T = Trace of Precipitation, MM = Missing Value Source: NWS Daily Summary

Daily Weather History Graph

Daily Weather History Graph

Search for Another Location

Airport or City:

Trip Planner

Search our weather history database for the weather conditions in past years. The results will help you decide how hot, cold, wet, or windy it might be!

Date:

Astronomy

Nov. 07, 2014 Rise Set
Actual Time 7:09 AM CST 5:40 PM CST
Civil Twilight 6:43 AM CST 6:07 PM CST
Nautical Twilight 6:12 AM CST 6:37 PM CST
Astronomical Twilight 5:42 AM CST 7:07 PM CST
Moon 6:34 PM CST (11/7) 7:47 AM CST (11/7)
Length of Visible Light 11h 23m
Length of Day
10h 30m
Full, 99% of the Moon is Illuminated
Nov 7
Full
Nov 14
Last Quarter
Nov 22
New
Nov 29
First Quarter
Dec 6
Full

Hourly Weather History & Observations

Time (CST) Temp. Windchill Dew Point Humidity Pressure Visibility Wind Dir Wind Speed Gust Speed Precip Events Conditions
12:15 AM 49.8 °F - 38.8 °F 66% 30.27 in 10.0 mi SW 9.2 mph - N/A   Clear
12:35 AM 49.3 °F - 38.5 °F 66% 30.26 in 10.0 mi SW 9.2 mph - N/A   Clear
12:55 AM 48.2 °F - 38.3 °F 69% 30.25 in - SW 8.1 mph - N/A   Clear
1:15 AM 49.3 °F - 38.1 °F 65% 30.24 in 10.0 mi SW 10.4 mph - N/A   Clear
1:35 AM 50.0 °F - 38.3 °F 64% 30.22 in 10.0 mi SSW 13.8 mph - N/A   Clear
1:55 AM 50.0 °F - 38.5 °F 65% 30.22 in - SSW 12.7 mph 18.4 mph N/A   Clear
2:15 AM 49.8 °F - 38.8 °F 66% 30.21 in - SSW 11.5 mph - N/A   Clear
2:35 AM 49.5 °F - 39.0 °F 67% 30.20 in - SSW 9.2 mph - N/A   Clear
2:55 AM 48.2 °F - 38.8 °F 70% 30.20 in 10.0 mi SSW 8.1 mph - N/A   Clear
3:15 AM 47.1 °F - 38.8 °F 73% 30.19 in - SSW 5.8 mph - N/A   Clear
3:35 AM 45.7 °F 42.0 °F 38.5 °F 76% 30.18 in - SSW 6.9 mph - N/A   Clear
3:55 AM 45.7 °F 42.0 °F 38.8 °F 77% 30.17 in 10.0 mi South 6.9 mph - N/A   Clear
4:15 AM 44.6 °F 40.7 °F 38.5 °F 79% 30.16 in 10.0 mi South 6.9 mph - N/A   Clear
4:35 AM 45.5 °F 41.3 °F 39.2 °F 79% 30.14 in 10.0 mi South 8.1 mph - N/A   Clear
4:55 AM 42.1 °F - 37.6 °F 84% 30.15 in 10.0 mi Calm Calm - N/A   Clear
5:15 AM 42.1 °F 37.7 °F 37.4 °F 83% 30.13 in 10.0 mi SSW 6.9 mph - N/A   Clear
5:35 AM 45.7 °F 44.4 °F 39.0 °F 78% 30.12 in 10.0 mi SW 3.5 mph - N/A   Clear
5:55 AM 46.4 °F - 38.3 °F 73% 30.12 in 10.0 mi Calm Calm - N/A   Clear
6:15 AM 46.8 °F - 38.1 °F 72% 30.11 in 10.0 mi Calm Calm - N/A   Clear
6:35 AM 50.0 °F - 38.3 °F 64% 30.10 in 10.0 mi Calm Calm - N/A   Clear
6:55 AM 50.0 °F - 37.9 °F 63% 30.10 in 10.0 mi Calm Calm - N/A   Clear
7:15 AM 48.0 °F - 37.8 °F 68% 30.10 in 10.0 mi South 6.9 mph - N/A   Clear
7:55 AM 50.2 °F - 38.1 °F 63% 30.09 in 10.0 mi SSW 3.5 mph - N/A   Clear
8:15 AM 53.4 °F - 37.6 °F 55% 30.09 in 10.0 mi SW 9.2 mph - N/A   Clear
8:35 AM 55.8 °F - 36.9 °F 49% 30.07 in 10.0 mi SW 11.5 mph 17.3 mph N/A   Clear
8:55 AM 57.7 °F - 35.8 °F 44% 30.06 in 10.0 mi SW 17.3 mph 25.3 mph N/A   Clear
9:15 AM 60.3 °F - 34.5 °F 38% 30.05 in - SW 17.3 mph 23.0 mph N/A   Clear
9:35 AM 63.0 °F - 32.9 °F 32% 30.04 in 10.0 mi SW 20.7 mph 26.5 mph N/A   Clear
9:55 AM 65.3 °F - 32.2 °F 29% 30.03 in 10.0 mi SW 19.6 mph 26.5 mph N/A   Clear
10:15 AM 66.6 °F - 32.0 °F 28% 30.02 in 10.0 mi SW 21.9 mph 32.2 mph N/A   Clear
10:35 AM 68.9 °F - 33.1 °F 27% 30.01 in 10.0 mi SW 19.6 mph 28.8 mph N/A   Clear
10:55 AM 70.2 °F - 32.4 °F 25% 30.00 in 10.0 mi SW 19.6 mph 31.1 mph N/A   Clear
11:15 AM 71.1 °F - 32.5 °F 24% 29.98 in 10.0 mi SW 20.7 mph 32.2 mph N/A   Clear
11:35 AM 72.9 °F - 32.0 °F 22% 29.98 in 10.0 mi SW 19.6 mph 29.9 mph N/A   Clear
11:55 AM 74.3 °F - 32.0 °F 21% 29.97 in 10.0 mi SW 16.1 mph 26.5 mph N/A   Clear
12:15 PM 75.0 °F - 32.4 °F 21% 29.97 in 10.0 mi SW 20.7 mph 27.6 mph N/A   Clear
12:35 PM 75.2 °F - 33.3 °F 22% 29.95 in 10.0 mi SW 24.2 mph 31.1 mph N/A   Clear
12:55 PM 75.6 °F - 34.2 °F 22% 29.94 in 10.0 mi SW 17.3 mph 28.8 mph N/A   Clear
1:15 PM 76.3 °F - 34.9 °F 22% 29.93 in 10.0 mi SW 20.7 mph 27.6 mph N/A   Clear
1:35 PM 77.2 °F - 35.8 °F 22% 29.91 in 10.0 mi SW 16.1 mph 23.0 mph N/A   Clear
1:55 PM 77.9 °F - 36.5 °F 22% 29.91 in 10.0 mi SW 18.4 mph 24.2 mph N/A   Clear
2:15 PM 77.7 °F - 37.0 °F 23% 29.90 in 10.0 mi SW 21.9 mph 29.9 mph N/A   Clear
2:35 PM 78.3 °F - 36.9 °F 22% 29.88 in 10.0 mi SW 20.7 mph 25.3 mph N/A   Clear
2:55 PM 78.4 °F - 37.6 °F 23% 29.87 in 10.0 mi SW 20.7 mph 28.8 mph N/A   Clear
3:15 PM 78.3 °F - 38.1 °F 24% 29.87 in 10.0 mi SW 16.1 mph 26.5 mph N/A   Clear
3:35 PM 77.5 °F - 37.8 °F 24% 29.87 in 10.0 mi SSW 15.0 mph 25.3 mph N/A   Clear
3:55 PM 77.4 °F - 38.1 °F 24% 29.87 in 10.0 mi SW 18.4 mph 24.2 mph N/A   Clear
4:15 PM 77.0 °F - 38.7 °F 25% 29.87 in 10.0 mi SSW 13.8 mph - N/A   Clear
4:35 PM 75.2 °F - 38.7 °F 27% 29.87 in 10.0 mi SSW 15.0 mph 23.0 mph N/A   Clear
4:55 PM 75.2 °F - 38.5 °F 27% 29.88 in 10.0 mi SSW 11.5 mph 20.7 mph N/A   Clear
5:15 PM 73.4 °F - 38.5 °F 28% 29.88 in 10.0 mi SSW 12.7 mph - N/A   Clear
5:35 PM 70.9 °F - 38.7 °F 31% 29.88 in 10.0 mi SSW 9.2 mph - N/A   Clear
5:55 PM 68.2 °F - 39.4 °F 35% 29.89 in 10.0 mi SSW 9.2 mph - N/A   Clear
6:15 PM 66.2 °F - 40.5 °F 39% 29.90 in - SSW 9.2 mph - N/A   Clear
6:35 PM 66.7 °F - 41.0 °F 39% 29.91 in - SSW 10.4 mph - N/A   Clear
6:55 PM 62.4 °F - 41.5 °F 46% 29.93 in - West 5.8 mph - N/A   Clear
7:15 PM 64.6 °F - 41.4 °F 43% 29.94 in 10.0 mi SW 13.8 mph - N/A   Clear
7:35 PM 61.3 °F - 42.1 °F 49% 29.95 in - Calm Calm - N/A   Clear
7:55 PM 61.2 °F - 42.1 °F 50% 29.96 in - NW 4.6 mph - N/A   Clear
8:15 PM 55.9 °F - 42.1 °F 60% 29.96 in - SW 8.1 mph - N/A   Clear
8:35 PM 59.5 °F - 43.2 °F 55% 29.96 in 10.0 mi SW 9.2 mph - N/A   Clear
8:55 PM 57.2 °F - 43.5 °F 60% 29.98 in - Calm Calm - N/A   Clear
9:15 PM 58.5 °F - 43.2 °F 57% 29.99 in - North 5.8 mph - N/A   Clear
9:35 PM 60.3 °F - 42.8 °F 53% 30.00 in - NNW 3.5 mph - N/A   Clear
9:55 PM 59.9 °F - 42.1 °F 52% 30.01 in - NNE 3.5 mph - N/A   Clear
10:15 PM 61.2 °F - 38.7 °F 43% 30.02 in 10.0 mi North 4.6 mph - N/A   Clear
10:35 PM 61.7 °F - 34.5 °F 36% 30.02 in 10.0 mi NNE 11.5 mph - N/A   Clear
10:55 PM 61.9 °F - 34.7 °F 36% 30.03 in 10.0 mi NNE 18.4 mph 24.2 mph N/A   Clear
11:15 PM 61.0 °F - 34.9 °F 38% 30.05 in 10.0 mi NNE 15.0 mph 19.6 mph N/A   Clear
11:35 PM 59.9 °F - 35.4 °F 40% 30.06 in 10.0 mi NNE 11.5 mph - N/A   Clear
11:55 PM 58.6 °F - 35.8 °F 42% 30.07 in 10.0 mi NNE 11.5 mph - N/A   Clear